Total_Precipitation_Accumulation
0.99 1.02 0.93 1.07 1.13 1.13 1.13 1.12 1.02 0.97 0.94 0.82 0.80 0.79 0.72 0.57 0.57 0.59 0.77 0.69 0.82 1.12 1.20 1.08 0.97 0.85 0.75 0.69 0.80 0.94 1.04 1.00 1.09 1.23 1.20 1.23 1.26 1.20 1.28 1.23 1.22 1.50 1.40
0.88 1.05 0.99 0.97 1.05 1.23 1.28 1.22 1.11 1.12 1.09 0.91 0.88 0.94 0.85 0.76 0.72 0.73 0.84 0.72 0.56 0.65 0.94 1.10 1.10 1.02 0.86 0.82 0.84 0.99 1.15 1.04 1.01 1.10 1.18 1.22 1.28 1.18 1.20 1.29 1.16 1.29 1.37
0.82 0.99 0.95 0.86 0.84 0.99 1.17 1.30 1.32 1.26 1.12 1.01 0.95 0.96 0.86 0.82 0.81 0.92 0.91 0.85 0.67 0.49 0.63 0.86 1.02 1.06 1.01 1.01 0.98 1.02 1.13 1.04 1.02 1.08 1.13 1.12 1.18 1.24 1.28 1.39 1.30 1.34 1.34
0.61 0.80 0.88 0.79 0.79 0.95 1.16 1.33 1.42 1.45 1.31 1.25 1.22 1.11 0.96 0.90 0.86 0.94 0.96 0.97 0.95 0.76 0.65 0.60 0.71 0.86 0.98 1.05 1.13 1.10 1.06 0.99 0.94 0.96 0.98 0.94 0.97 1.05 1.17 1.31 1.37 1.39 1.27
0.53 0.73 0.91 0.96 0.96 1.06 1.17 1.22 1.41 1.47 1.51 1.41 1.28 1.16 1.05 1.01 0.93 0.87 0.98 1.00 1.02 0.97 0.85 0.58 0.49 0.55 0.72 0.92 1.06 1.11 1.13 1.00 0.88 0.85 0.79 0.77 0.82 0.90 1.05 1.05 1.21 1.24 1.16
0.65 0.84 1.06 1.16 1.27 1.29 1.33 1.48 1.75 1.74 1.60 1.54 1.44 1.24 1.06 1.04 1.02 0.99 0.97 1.02 1.10 1.02 0.90 0.76 0.62 0.42 0.46 0.67 0.92 1.05 1.15 1.11 1.02 0.97 0.85 0.74 0.72 0.84 0.97 0.93 1.00 0.99 0.99
0.80 1.01 1.22 1.45 1.58 1.46 1.46 1.65 1.88 2.03 1.87 1.69 1.69 1.58 1.39 1.18 1.10 1.08 1.03 1.09 1.17 1.15 1.08 1.04 0.91 0.74 0.56 0.49 0.57 0.79 1.00 1.13 1.14 1.13 1.08 0.98 0.85 0.82 0.87 0.77 0.72 0.77 0.83
0.90 0.96 1.16 1.36 1.44 1.47 1.50 1.60 1.78 2.09 2.00 1.80 1.88 2.18 1.96 1.68 1.24 1.01 1.11 1.16 1.25 1.23 1.13 1.01 1.00 0.91 0.81 0.76 0.46 0.43 0.61 0.92 1.18 1.17 1.19 1.17 1.07 0.90 0.87 0.76 0.70 0.69 0.72
1.19 1.17 1.20 1.34 1.42 1.54 1.56 1.59 1.65 1.85 1.97 1.90 1.92 2.35 2.21 1.97 1.80 1.34 1.08 1.14 1.27 1.34 1.31 1.23 1.12 1.06 0.96 0.95 0.78 0.44 0.38 0.53 0.94 1.17 1.26 1.29 1.18 1.01 0.93 0.84 0.80 0.75 0.71
1.50 1.48 1.49 1.57 1.52 1.50 1.48 1.49 1.50 1.65 1.94 1.99 1.91 1.84 1.81 1.82 2.08 1.79 1.30 1.16 1.21 1.22 1.30 1.25 1.24 1.22 1.21 1.10 0.97 0.68 0.42 0.40 0.69 1.14 1.44 1.43 1.23 1.07 0.98 0.95 0.88 0.86 0.80
2.08 2.00 1.93 1.79 1.61 1.52 1.54 1.57 1.57 1.63 1.72 1.82 1.81 1.75 1.75 1.68 1.54 1.66 1.62 1.39 1.22 1.12 1.19 1.27 1.29 1.29 1.35 1.32 1.19 0.90 0.61 0.42 0.52 0.90 1.31 1.51 1.47 1.28 1.10 1.00 0.93 0.91 0.82
2.04 1.98 1.85 1.63 1.46 1.40 1.46 1.58 1.60 1.63 1.62 1.67 1.65 1.58 1.58 1.56 1.46 1.55 1.51 1.52 1.52 1.17 1.05 1.09 1.18 1.21 1.20 1.33 1.23 1.28 0.93 0.62 0.49 0.65 0.89 1.20 1.47 1.57 1.45 1.29 1.09 0.99 0.90
1.42 1.46 1.46 1.43 1.37 1.31 1.38 1.55 1.63 1.66 1.67 1.64 1.58 1.52 1.56 1.45 1.51 1.69 1.68 1.59 1.53 1.23 1.02 0.91 0.95 1.01 1.02 1.17 1.29 1.45 1.18 0.90 0.64 0.56 0.63 0.79 0.99 1.29 1.57 1.66 1.56 1.37 1.28
1.24 1.25 1.32 1.34 1.32 1.32 1.34 1.41 1.51 1.63 1.66 1.59 1.56 1.63 1.59 1.44 1.52 1.54 1.53 1.70 1.57 1.35 1.11 0.84 0.77 0.80 0.92 0.99 1.18 1.40 1.03 0.96 0.78 0.63 0.57 0.60 0.72 0.81 1.01 1.34 1.65 1.73 1.72
0.94 1.05 1.15 1.21 1.17 1.18 1.22 1.31 1.44 1.49 1.58 1.66 1.65 1.66 1.65 1.58 1.57 1.56 1.65 1.70 1.69 1.47 1.20 0.96 0.80 0.70 0.80 0.86 1.10 1.07 0.92 0.94 0.85 0.72 0.63 0.57 0.59 0.62 0.72 0.83 1.01 1.17 1.32
0.83 0.90 0.87 0.83 0.81 0.87 0.89 0.99 1.17 1.26 1.30 1.38 1.41 1.45 1.50 1.51 1.56 1.56 1.62 1.69 1.66 1.55 1.37 1.13 0.95 0.84 0.89 0.84 0.97 0.94 0.99 1.13 0.95 0.79 0.69 0.62 0.58 0.58 0.59 0.59 0.62 0.64 0.69
0.52 0.60 0.56 0.53 0.58 0.62 0.59 0.68 0.79 0.91 0.99 1.04 1.06 1.10 1.18 1.24 1.33 1.38 1.50 1.57 1.60 1.54 1.30 1.16 1.03 0.94 0.98 1.01 1.01 0.97 1.02 1.03 0.94 0.86 0.74 0.63 0.60 0.57 0.59 0.59 0.60 0.56 0.55
0.22 0.29 0.32 0.33 0.40 0.51 0.53 0.60 0.64 0.66 0.72 0.76 0.81 0.88 0.93 0.99 1.10 1.18 1.25 1.34 1.47 1.50 1.40 1.25 1.13 1.02 0.93 0.96 1.12 1.17 1.15 1.09 1.07 1.14 1.04 0.87 0.76 0.67 0.62 0.62 0.66 0.63 0.59
0.16 0.20 0.23 0.26 0.30 0.39 0.51 0.57 0.58 0.55 0.54 0.52 0.53 0.59 0.67 0.75 0.90 0.99 1.03 1.11 1.27 1.31 1.39 1.29 1.22 1.15 1.00 0.94 1.07 1.09 1.19 1.35 1.25 1.33 1.46 1.27 1.01 0.83 0.73 0.71 0.74 0.73 0.68
0.16 0.15 0.14 0.16 0.24 0.35 0.43 0.51 0.55 0.52 0.49 0.49 0.50 0.50 0.53 0.55 0.63 0.74 0.87 1.05 1.22 1.35 1.40 1.35 1.30 1.25 1.17 1.07 1.13 1.22 1.31 1.39 1.43 1.30 1.33 1.32 1.27 1.13 0.95 0.84 0.86 0.89 0.86
0.12 0.08 0.06 0.08 0.16 0.22 0.26 0.40 0.46 0.45 0.48 0.45 0.47 0.51 0.53 0.49 0.49 0.54 0.55 0.73 0.95 1.19 1.31 1.37 1.37 1.38 1.31 1.24 1.17 1.26 1.33 1.47 1.58 1.59 1.49 1.35 1.32 1.19 1.06 0.97 0.92 0.94 0.98
0.09 0.07 0.05 0.05 0.07 0.08 0.14 0.21 0.30 0.40 0.47 0.50 0.51 0.55 0.53 0.49 0.53 0.51 0.49 0.52 0.62 0.78 0.97 1.10 1.19 1.24 1.27 1.36 1.47 1.47 1.45 1.53 1.61 1.61 1.49 1.52 1.47 1.35 1.18 1.01 1.00 1.03 1.05
0.04 0.04 0.04 0.04 0.04 0.04 0.05 0.08 0.18 0.34 0.48 0.49 0.48 0.62 0.68 0.63 0.62 0.65 0.66 0.60 0.54 0.53 0.69 0.87 0.99 1.04 1.12 1.23 1.47 1.51 1.49 1.52 1.45 1.50 1.37 1.44 1.40 1.29 1.20 1.16 1.17 1.10 1.11
0.02 0.03 0.05 0.07 0.05 0.02 0.02 0.04 0.09 0.24 0.39 0.43 0.44 0.56 0.81 0.86 0.75 0.71 0.75 0.85 0.77 0.61 0.61 0.66 0.81 0.92 0.97 1.13 1.47 1.69 1.63 1.42 1.37 1.43 1.34 1.36 1.32 1.20 1.14 1.12 1.17 1.08 1.07
0.03 0.03 0.04 0.06 0.05 0.04 0.04 0.04 0.08 0.19 0.29 0.33 0.38 0.50 0.67 0.82 0.75 0.71 0.71 0.78 0.82 0.72 0.66 0.68 0.65 0.72 0.85 1.02 1.28 1.55 1.66 1.59 1.43 1.39 1.26 1.18 1.21 1.22 1.24 1.19 1.13 1.12 1.05
0.03 0.03 0.03 0.03 0.03 0.02 0.04 0.05 0.07 0.13 0.17 0.17 0.24 0.41 0.56 0.55 0.52 0.59 0.70 0.81 0.90 0.74 0.65 0.74 0.73 0.75 0.78 0.96 1.28 1.49 1.60 1.58 1.47 1.43 1.33 1.23 1.23 1.26 1.44 1.39 1.21 1.15 1.09